Stations météo

réclame
Mon MeteoGroup
Arkona, Allemagne (10091): Température de l'air & dewpoint: 22.05.2018 07:00:00 - 28.05.2018 07:00:00 (CEST)Arkona, Allemagne (10091): Température de l'air 5cm & Température de l'air -5cm: 22.05.2018 07:00:00 - 28.05.2018 07:00:00 (CEST)Arkona, Allemagne (10091): Température de l'air -20cm & Température de l'air -100cm: 22.05.2018 07:00:00 - 28.05.2018 07:00:00 (CEST)Arkona, Allemagne (10091): water temperature: 22.05.2018 07:00:00 - 28.05.2018 07:00:00 (CEST)Arkona, Allemagne (10091): Vitesse du vent & gusts: 22.05.2018 07:00:00 - 28.05.2018 07:00:00 (CEST)Arkona, Allemagne (10091): Direction du vent: 22.05.2018 07:00:00 - 28.05.2018 07:00:00 (CEST)Arkona, Allemagne (10091): reduced air pressure: 22.05.2018 07:00:00 - 28.05.2018 07:00:00 (CEST)Arkona, Allemagne (10091): visibility: 22.05.2018 07:00:00 - 28.05.2018 07:00:00 (CEST)Arkona, Allemagne (10091): Ensoleillement: 22.05.2018 07:00:00 - 28.05.2018 07:00:00 (CEST)Arkona, Allemagne (10091): Quantités de précipitations: 22.05.2018 07:00:00 - 28.05.2018 07:00:00 (CEST)
Date & Time tt [°C] td [°C] tt 5cm [°C] tt -5cm [°C] tt -20cm [°C] tt -100cm [°C] tw [°C] ff [km/h] ff [knt] fx [km/h] fx [knt] dd ppp [hPa] vv [km] sd [min] rr [mm]
28.05.2018 07:00:00 13,7 13,2 14,0 15,8 17,6 14,7 15,3 19 11 27 15 E 1023,5 6 48 0,0
28.05.2018 06:00:00 13,3 13,1 12,8 15,4 17,8 14,7 15,3 22 12 36 19 E 1023,5 7 0 0,0
28.05.2018 05:00:00 13,3 13,2 12,7 15,5 18,0 14,7 15,4 29 15 42 23 E 1023,2 7 0 0,0
28.05.2018 04:00:00 13,7 13,6 13,0 15,7 18,2 14,7 15,4 34 18 45 25 E 1023,1 7 0 0,0
28.05.2018 03:00:00 13,4 13,4 12,8 15,9 18,4 14,7 15,4 31 17 38 20 ENE 1023,5 5 0 0,0
28.05.2018 02:00:00 13,6 13,6 12,9 16,2 18,7 14,7 15,5 29 16 40 21 ENE 1023,5 5 0 0,0
28.05.2018 01:00:00 13,7 13,7 13,3 16,7 19,0 14,6 15,5 32 17 38 21 ENE 1023,7 6 0 0,0
28.05.2018 00:00:00 13,5 13,5 13,0 16,8 19,3 14,6 15,5 23 12 36 19 E 1023,8 4,1 0 0,0
27.05.2018 23:00:00 13,7 13,7 13,1 17,3 19,6 14,6 15,6 29 16 40 22 E 1023,8 5 0 0,0
27.05.2018 22:00:00 13,7 13,7 13,0 18,0 19,8 14,6 15,6 20 11 31 17 E 1024,0 4,1 0 0,0
27.05.2018 21:00:00 13,5 13,5 13,1 19,3 20,0 14,6 15,6 15 8 42 23 E 1023,7 4,7 27 0,0
27.05.2018 20:00:00 14,9 14,0 16,1 20,8 20,0 14,6 15,6 19 10 33 18 ENE 1023,4 10 60 0,0
27.05.2018 19:00:00 15,1 14,6 17,6 21,0 20,1 14,6 15,6 20 11 42 23 E 1023,2 5 23 0,0
27.05.2018 18:00:00 15,0 14,9 16,6 21,2 20,1 14,6 15,6 22 12 38 20 E 1023,2 3,3 0 0,0
27.05.2018 17:00:00 14,6 14,6 16,4 20,9 20,1 14,6 15,5 29 15 41 22 ENE 1023,0 3,1 0 0,0
27.05.2018 16:00:00 14,2 14,1 16,3 21,5 20,0 14,6 15,5 26 14 40 22 ENE 1023,7 6 0 0,0
27.05.2018 15:00:00 14,3 14,2 17,1 21,8 19,8 14,6 15,4 18 10 42 23 ENE 1024,1 3,0 0 0,0
27.05.2018 14:00:00 14,5 14,3 17,1 21,6 19,7 14,5 15,3 23 12 41 22 ENE 1024,4 3,8 0 0,0
27.05.2018 13:00:00 14,5 14,4 16,7 21,0 19,6 14,5 15,3 29 16 41 22 ENE 1024,5 3,3 0 0,0
27.05.2018 12:00:00 14,4 14,4 16,6 20,3 19,6 14,5 15,3 26 14 41 22 ENE 1024,4 3,1 0 0,0
27.05.2018 11:00:00 14,2 14,2 16,0 19,8 19,6 14,5 15,3 29 16 41 22 ENE 1024,3 2,2 0 0,0
27.05.2018 10:00:00 14,0 14,0 15,3 19,2 19,7 14,5 15,3 23 12 38 20 ENE 1024,3 2,5 0 0,0
27.05.2018 09:00:00 13,8 13,8 15,2 19,0 19,8 14,5 15,3 23 12 38 20 ENE 1024,1 2,2 0 0,0
27.05.2018 08:00:00 14,2 14,2 15,0 18,7 19,9 14,5 15,4 26 14 36 20 ENE 1023,8 3,0 0 0,0
27.05.2018 07:00:00 14,1 14,1 14,8 18,6 20,1 14,5 15,4 28 15 37 20 ENE 1023,5 4,1 0 0,0
27.05.2018 06:00:00 14,2 14,2 14,6 18,6 20,4 14,5 15,5 27 15 37 20 ENE 1023,6 2,3 0 0,0
27.05.2018 05:00:00 14,5 14,5 14,8 18,9 20,6 14,4 15,4 19 10 34 18 ENE 1023,6 0,7 0 0,0
27.05.2018 04:00:00 14,5 14,5 14,8 19,1 20,9 14,4 15,4 19 11 29 16 ENE 1023,6 1,1 0 0,0
27.05.2018 03:00:00 14,4 14,4 14,7 19,3 21,2 14,4 15,2 23 12 35 19 ENE 1023,8 1,6 0 0,0
27.05.2018 02:00:00 14,5 14,5 14,8 19,6 21,5 14,4 15,3 21 11 31 17 ENE 1024,4 0,7 0 0,0
27.05.2018 01:00:00 14,2 14,2 14,5 19,9 21,9 14,4 15,3 22 12 31 17 ENE 1024,4 0,1 0 0,0
27.05.2018 00:00:00 14,5 14,5 14,7 20,1 22,4 14,4 15,3 18 10 27 15 NE 1024,4 4,1 0 0,0
26.05.2018 23:00:00 14,4 14,4 13,2 20,6 22,9 14,4 15,4 12 7 20 11 ENE 1024,5 7 0 0,0
26.05.2018 22:00:00 14,7 14,5 13,6 21,8 23,5 14,4 15,3 16 9 31 17 ENE 1024,5 6 0 0,0
26.05.2018 21:00:00 14,8 14,6 14,3 23,5 23,9 14,4 15,3 19 10 31 17 ENE 1024,3 4,7 3 0,0
26.05.2018 20:00:00 14,9 14,6 15,5 25,8 24,2 14,4 15,6 16 9 30 16 ENE 1024,3 4,2 28 0,0
26.05.2018 19:00:00 15,7 14,7 18,5 28,2 24,2 14,4 15,8 17 9 28 15 ENE 1024,3 4,8 44 0,0
26.05.2018 18:00:00 15,6 14,2 19,2 30,5 24,0 14,4 16,0 21 11 31 17 ENE 1024,2 6 59 0,0
26.05.2018 17:00:00 15,4 13,9 19,7 31,9 23,6 14,4 16,0 23 12 34 18 NE 1024,7 7 59 0,0
26.05.2018 16:00:00 16,0 13,8 22,8 32,8 22,9 14,4 15,9 22 12 31 17 NE 1024,5 10 60 0,0
26.05.2018 15:00:00 16,6 13,5 23,8 32,5 22,2 14,3 15,8 25 13 29 16 NE 1024,4 8 60 0,0
26.05.2018 14:00:00 16,9 13,6 24,5 31,7 21,3 14,3 15,7 19 10 24 13 NE 1024,9 9 60 0,0
26.05.2018 13:00:00 17,2 13,9 22,9 30,0 20,5 14,3 15,6 16 8 23 12 NE 1025,0 8 60 0,0
26.05.2018 12:00:00 16,6 13,3 23,3 27,9 19,8 14,3 15,5 18 10 21 12 NE 1025,1 8 60 0,0
26.05.2018 11:00:00 17,6 13,6 22,2 25,5 19,2 14,3 15,3 10 6 21 11 E 1024,8 9 60 0,0
26.05.2018 10:00:00 17,0 13,6 20,8 22,6 18,8 14,3 15,2 10 6 24 13 E 1024,6 9 60 0,0
26.05.2018 09:00:00 16,5 13,7 19,0 20,9 18,6 14,3 15,1 16 9 27 15 ENE 1024,3 5 60 0,0
26.05.2018 08:00:00 16,5 13,9 16,7 18,3 18,6 14,3 15,0 12 7 35 19 ENE 1024,0 6 60 0,0
26.05.2018 07:00:00 15,3 14,7 15,4 16,7 18,8 14,3 15,1 12 6 45 24 ENE 1024,0 6 10 0,6
26.05.2018 06:00:00 14,1 13,4 13,1 16,5 19,1 14,3 15,1 22 12 40 22 ENE 1024,1 11 0 0,0
26.05.2018 05:00:00 14,1 13,1 13,2 16,6 19,4 14,3 15,2 20 11 29 16 NE 1023,9 11 0 0,0
26.05.2018 04:00:00 13,7 12,7 12,5 16,7 19,8 14,2 15,3 19 11 33 18 NE 1023,7 10 0 0,0
26.05.2018 03:00:00 13,5 12,8 12,3 17,1 20,1 14,2 15,3 19 11 33 18 NE 1024,2 11 0 0,0
26.05.2018 02:00:00 13,9 13,4 12,8 17,5 20,6 14,2 15,4 22 12 31 17 NE 1023,9 7 0 0,0
26.05.2018 01:00:00 13,9 12,9 12,5 18,0 21,0 14,2 15,5 24 13 38 21 NE 1024,2 8 0 0,0
26.05.2018 00:00:00 13,8 12,3 12,7 18,6 21,5 14,2 15,5 33 18 40 22 ENE 1024,1 10 0 0,0
25.05.2018 23:00:00 14,0 13,0 12,5 19,4 22,0 14,2 15,4 22 12 33 18 ENE 1024,4 9 0 0,0
25.05.2018 22:00:00 13,5 12,8 12,3 20,6 22,6 14,2 15,4 26 14 32 18 ENE 1024,4 9 7 0,0
25.05.2018 21:00:00 13,6 12,6 12,8 22,5 23,0 14,2 15,4 22 12 29 15 ENE 1024,1 9 48 0,0
25.05.2018 20:00:00 13,8 12,6 15,5 25,1 23,2 14,2 15,3 21 11 25 13 ENE 1024,0 9 60 0,0
25.05.2018 19:00:00 14,0 12,0 17,8 27,2 23,1 14,2 15,3 22 12 32 18 ENE 1024,1 10 60 0,0
25.05.2018 18:00:00 14,2 12,2 18,3 29,0 22,9 14,2 15,2 23 12 32 18 ENE 1024,1 8 60 0,0
25.05.2018 17:00:00 14,4 11,7 18,9 29,9 22,5 14,2 15,2 26 14 34 18 ENE 1024,4 7 60 0,0
25.05.2018 16:00:00 14,5 11,1 20,5 30,4 21,9 14,2 15,2 27 15 35 19 NE 1024,7 7 59 0,0
25.05.2018 15:00:00 14,5 10,9 19,3 30,1 21,2 14,1 15,2 22 12 35 19 NE 1025,2 11 58 0,0
25.05.2018 14:00:00 14,5 10,7 21,0 29,5 20,5 14,1 15,2 29 15 35 19 ENE 1025,4 6 60 0,0
25.05.2018 13:00:00 14,2 10,5 21,0 28,1 19,7 14,1 15,2 28 15 38 20 NE 1025,6 6 60 0,0
25.05.2018 12:00:00 14,1 9,9 20,1 26,2 19,0 14,1 15,2 30 16 34 18 NE 1025,7 6 60 0,0
25.05.2018 11:00:00 14,1 8,7 19,4 23,8 18,5 14,1 15,1 27 15 32 17 ENE 1025,9 7 60 0,0
25.05.2018 10:00:00 13,8 8,5 17,7 21,4 18,1 14,1 15,0 27 14 34 19 ENE 1026,2 9 60 0,0
25.05.2018 09:00:00 14,2 7,8 16,7 19,1 18,0 14,1 15,0 29 15 32 18 ENE 1026,0 13 60 0,0
25.05.2018 08:00:00 14,0 6,4 15,2 16,9 18,1 14,1 15,0 29 16 32 17 ENE 1026,1 7 60 0,0
25.05.2018 07:00:00 13,2 8,7 13,1 15,2 18,3 14,1 14,9 27 15 32 17 ENE 1026,1 11 60 0,0
25.05.2018 06:00:00 12,5 9,1 11,4 14,9 18,7 14,0 14,9 27 14 31 17 ENE 1026,0 12 43 0,0
25.05.2018 05:00:00 12,3 9,3 11,0 15,1 19,0 14,0 15,0 28 15 35 19 E 1026,0 17 0 0,0
25.05.2018 04:00:00 12,4 9,1 10,5 15,5 19,5 14,0 15,2 21 11 34 19 E 1026,0 16 0 0,0
25.05.2018 03:00:00 12,5 8,8 10,6 16,0 19,9 14,0 15,2 21 11 35 19 E 1026,0 15 0 0,0
25.05.2018 02:00:00 12,5 9,6 10,7 16,6 20,4 14,0 15,4 18 10 38 21 E 1026,0 13 0 0,0
25.05.2018 01:00:00 13,1 11,0 11,4 17,3 20,9 14,0 15,5 22 12 46 25 E 1025,8 13 0 0,0
25.05.2018 00:00:00 13,0 11,4 11,9 18,0 21,4 14,0 15,7 34 19 42 23 E 1025,9 13 0 0,0
24.05.2018 23:00:00 13,4 11,3 12,3 19,0 22,0 14,0 15,8 29 16 45 24 E 1026,1 13 0 0,0
24.05.2018 22:00:00 13,7 11,0 12,4 20,1 22,6 14,0 15,9 37 20 53 29 E 1025,9 13 11 0,0
24.05.2018 21:00:00 13,6 11,3 12,8 21,9 23,1 14,0 16,0 35 19 44 24 E 1025,5 14 48 0,0
24.05.2018 20:00:00 14,1 11,2 14,6 24,5 23,3 14,0 16,0 29 16 42 23 E 1025,5 12 60 0,0
24.05.2018 19:00:00 14,4 11,0 17,0 26,9 23,4 13,9 16,0 30 16 40 22 ENE 1025,8 14 60 0,0
24.05.2018 18:00:00 14,7 10,8 18,7 28,7 23,2 13,9 16,0 31 17 41 22 ENE 1026,0 11 60 0,0
24.05.2018 17:00:00 15,2 11,4 18,7 29,8 22,8 13,9 16,1 32 18 40 22 ENE 1026,4 7 60 0,0
24.05.2018 16:00:00 15,4 11,3 19,9 30,9 22,3 13,9 16,1 34 18 39 21 ENE 1027,1 8 60 0,0
24.05.2018 15:00:00 15,1 10,2 21,7 30,8 21,6 13,9 16,0 16 9 31 17 E 1027,7 10 60 0,0
24.05.2018 14:00:00 15,4 11,1 22,2 30,0 20,8 13,9 15,8 21 12 34 18 E 1028,2 12 60 0,0
24.05.2018 13:00:00 15,5 11,2 21,5 28,6 20,0 13,9 15,6 26 14 29 16 E 1028,2 10 60 0,0
24.05.2018 12:00:00 15,5 11,3 21,2 26,7 19,3 13,9 15,4 20 11 30 16 E 1028,5 12 60 0,0
24.05.2018 11:00:00 15,4 11,0 20,1 24,5 18,8 13,8 15,4 18 10 29 16 E 1028,7 8 60 0,0
24.05.2018 10:00:00 15,3 11,0 19,0 21,8 18,5 13,8 15,3 16 9 33 18 E 1028,7 9 60 0,0
24.05.2018 09:00:00 15,1 11,4 17,3 19,5 18,3 13,8 15,3 20 11 38 20 E 1028,3 9 60 0,0
24.05.2018 08:00:00 15,0 11,9 16,0 17,5 18,4 13,8 15,3 17 9 39 21 E 1028,2 11 60 0,0
24.05.2018 07:00:00 14,3 11,6 13,8 15,8 18,7 13,8 15,5 33 18 42 23 E 1028,0 12 60 0,0
24.05.2018 06:00:00 14,2 12,3 11,7 15,5 19,1 13,8 15,7 17 9 27 15 E 1028,0 13 44 0,0
24.05.2018 05:00:00 13,5 11,4 11,0 15,7 19,5 13,8 16,0 14 7 27 15 E 1027,7 17 0 0,0
24.05.2018 04:00:00 13,9 11,2 10,7 16,2 20,0 13,8 16,3 21 12 27 15 E 1027,6 18 0 0,0
24.05.2018 03:00:00 13,5 11,5 11,3 16,8 20,5 13,8 16,3 10 5 26 14 E 1027,6 16 0 0,0
24.05.2018 02:00:00 13,5 11,4 10,8 17,6 21,0 13,8 16,3 13 7 26 14 E 1027,5 17 0 0,0
24.05.2018 01:00:00 14,3 11,1 12,2 18,3 21,6 13,8 16,1 10 5 29 15 E 1027,3 17 0 0,0
24.05.2018 00:00:00 14,6 11,6 11,9 19,2 22,1 13,7 16,5 16 9 24 13 E 1027,0 17 0 0,0
23.05.2018 23:00:00 14,1 12,9 11,2 20,4 22,7 13,7 17,3 12 7 17 9 E 1026,6 16 0 0,0
23.05.2018 22:00:00 14,9 13,2 12,2 22,0 23,3 13,7 17,3 16 8 17 9 ENE 1026,3 16 8 0,0
23.05.2018 21:00:00 15,4 12,8 12,9 24,2 23,7 13,7 17,3 12 7 15 8 ENE 1025,8 15 48 0,0
23.05.2018 20:00:00 16,6 12,9 17,0 27,2 23,9 13,7 17,7 13 7 15 8 E 1025,7 16 60 0,0
23.05.2018 19:00:00 17,7 12,5 21,3 29,7 23,8 13,7 18,6 10 5 11 6 E 1025,6 17 60 0,0
23.05.2018 18:00:00 18,3 12,2 23,0 31,5 23,4 13,7 18,5 5 3 10 5 E 1025,6 16 60 0,0
23.05.2018 17:00:00 18,6 12,0 23,7 32,5 22,9 13,7 19,0 4 2 12 7 E 1025,7 17 60 0,0
23.05.2018 16:00:00 19,0 11,6 25,9 33,2 22,1 13,7 18,9 4 2 13 7 E 1025,8 17 60 0,0
23.05.2018 15:00:00 18,8 11,1 26,3 32,8 21,2 13,7 17,9 6 3 13 7 E 1025,7 17 60 0,0
23.05.2018 14:00:00 19,2 11,6 26,3 31,6 20,3 13,7 17,3 8 4 11 6 ENE 1025,4 16 60 0,0
23.05.2018 13:00:00 18,5 12,0 25,3 29,9 19,3 13,7 16,8 8 4 10 6 NE 1025,3 20 60 0,0
23.05.2018 12:00:00 18,4 12,3 24,4 27,6 18,5 13,7 16,2 8 4 10 5 NE 1025,2 17 60 0,0
23.05.2018 11:00:00 17,8 12,5 22,8 24,9 17,8 13,7 15,7 4 2 9 5 E 1024,8 14 60 0,0
23.05.2018 10:00:00 17,7 12,5 22,0 22,2 17,3 13,7 15,2 8 4 12 6 NE 1024,2 13 60 0,0
23.05.2018 09:00:00 17,1 12,7 18,8 19,4 17,1 13,6 14,9 6 4 13 7 ENE 1023,9 18 60 0,0
23.05.2018 08:00:00 16,3 12,6 15,2 16,8 17,1 13,6 14,7 11 6 14 8 NE 1023,1 15 60 0,0
23.05.2018 07:00:00 15,1 12,2 13,1 14,5 17,4 13,6 14,6 9 5 12 6 NE 1022,5 14 60 0,0
23.05.2018 06:00:00 12,4 11,4 9,6 14,0 17,7 13,6 14,6 8 5 11 6 NNE 1022,0 12 42 0,0
23.05.2018 05:00:00 12,0 11,3 7,9 14,2 18,1 13,6 14,7 5 3 7 4 NE 1021,3 12 0 0,0
23.05.2018 04:00:00 12,2 11,6 8,0 14,6 18,5 13,6 14,8 6 3 10 5 ESE 1021,0 15 0 0,0
23.05.2018 03:00:00 11,8 11,6 7,7 15,2 19,0 13,6 14,9 9 5 11 6 E 1020,8 11 0 0,0
23.05.2018 02:00:00 12,0 11,2 7,9 15,8 19,4 13,6 15,1 8 4 10 6 ENE 1020,7 13 0 0,0
23.05.2018 01:00:00 12,5 11,3 9,0 16,6 19,9 13,6 15,2 8 4 13 7 E 1020,2 14 0 0,0
23.05.2018 00:00:00 12,5 10,8 9,2 17,5 20,5 13,6 15,2 7 4 14 8 E 1019,9 14 0 0,0
22.05.2018 23:00:00 12,7 11,4 9,4 18,5 21,0 13,6 15,1 7 4 18 10 E 1019,6 14 0 0,0
22.05.2018 22:00:00 13,2 11,5 11,6 19,9 21,5 13,6 15,0 12 6 19 11 E 1019,4 13 5 0,0
22.05.2018 21:00:00 13,8 11,8 12,0 21,8 21,8 13,6 14,9 10 5 23 12 E 1018,9 13 47 0,0
22.05.2018 20:00:00 14,3 11,2 15,1 24,4 22,0 13,6 15,0 10 5 27 15 E 1018,4 15 60 0,0
22.05.2018 19:00:00 15,1 11,5 18,3 26,8 21,8 13,6 14,8 15 8 21 12 E 1018,2 17 60 0,0
22.05.2018 18:00:00 15,5 11,0 20,1 28,5 21,4 13,6 14,5 14 8 17 9 E 1018,1 16 60 0,0
22.05.2018 17:00:00 15,6 12,9 20,3 29,1 20,9 13,6 14,3 12 7 21 12 E 1018,0 15 60 0,0
22.05.2018 16:00:00 15,1 12,5 21,2 29,4 20,2 13,5 14,2 14 8 18 10 ENE 1018,1 12 60 0,0
22.05.2018 15:00:00 15,0 11,8 21,1 27,6 19,5 13,5 14,0 18 10 20 11 ENE 1018,0 12 59 0,0
22.05.2018 14:00:00 14,9 11,7 20,3 27,7 18,7 13,5 13,9 17 9 19 11 ENE 1018,2 19 60 0,0
22.05.2018 13:00:00 14,9 11,5 19,5 24,0 18,2 13,5 13,8 11 6 22 12 ENE 1018,3 20 54 0,0
22.05.2018 12:00:00 14,0 11,3 18,0 22,3 17,7 13,5 13,7 20 11 26 14 E 1018,3 15 40 0,0
22.05.2018 11:00:00 14,6 11,5 18,9 20,8 17,4 13,5 13,8 11 6 24 13 E 1018,5 16 33 0,0
22.05.2018 10:00:00 14,1 11,2 16,9 20,3 17,0 13,5 13,9 21 11 26 14 E 1018,6 17 54 0,0
22.05.2018 09:00:00 14,2 11,4 16,5 18,0 16,9 13,5 13,9 18 10 24 13 ENE 1018,4 19 56 0,0
22.05.2018 08:00:00 13,2 11,6 13,5 15,1 17,1 13,5 13,9 19 10 23 12 E 1018,3 14 5 0,0
22.05.2018 07:00:00 12,6 11,4 11,4 14,5 17,3 13,5 13,7 14 8 19 11 E 1018,4 15 0 0,0

tt = Température de l'air
td = dewpoint
tt 5cm = Température de l'air 5cm
tt -5cm = Température de l'air -5cm
tt -20cm = Température de l'air -20cm
tt -100cm = Température de l'air -100cm
tw = water temperature
ff = Vitesse du vent
fx = gusts
dd = Direction du vent
ppp = reduced air pressure
vv = visibility
sd = Ensoleillement
rr = Quantités de précipitations

stations d'obs. à proximité